Tracking 35237 objects as of 6-Sep-2026
HD Live streaming from Space Station
objects crossing your sky now

STARLINK-36622

Track STARLINK-36622 now!
10-day predictions
STARLINK-36622 is classified as:


NORAD ID: 67667
Int'l Code: 2026-022V
Launch date: February 2, 2026
Source: United States (US)
Launch site: AIR FORCE WESTERN TEST RANGE (AFWTR)
Your satellite tracking list
Your tracking list is empty




NASA's NSSDC Master Catalog

Two Line Element Set (TLE):
1 67667U 26022V   26249.59100630  .00013710  00000-0  42623-3 0  9993
2 67667  97.2850 281.3242 0001409  94.8389 265.3015 15.33445387 33294
Source of the keplerian elements: AFSPC